Time,TemperatureF,DewpointF,PressureIn,WindDirection,WindDirectionDegrees,WindSpeedMPH,WindSpeedGustMPH,Humidity,HourlyPrecipIn,Conditions,Clouds,dailyrainin,SoftwareType,DateUTC
2013-02-01 00:03:00,48.0,38.0,30.19,NNW,342,0.0,0.0,68,0.00,,,0.12,,2013-02-01 05:03:00,
2013-02-01 00:12:00,48.0,38.0,30.19,NNW,342,0.0,0.0,68,0.00,,,0.12,,2013-02-01 05:12:00,
2013-02-01 00:22:00,48.0,38.0,30.20,NNW,338,0.0,0.0,67,0.00,,,0.12,,2013-02-01 05:22:00,
2013-02-01 00:32:00,49.0,38.0,30.21,North,355,0.0,0.0,66,0.00,,,0.12,,2013-02-01 05:32:00,
2013-02-01 00:42:00,49.0,38.0,30.21,North,355,0.0,0.0,66,0.00,,,0.12,,2013-02-01 05:42:00,
2013-02-01 00:52:00,49.0,36.0,30.20,NNW,331,0.0,2.0,61,0.00,,,0.12,,2013-02-01 05:52:00,
2013-02-01 01:02:00,49.0,36.0,30.20,NNW,344,0.0,2.0,60,0.00,,,0.12,,2013-02-01 06:02:00,
2013-02-01 01:11:00,49.0,36.0,30.20,NNW,344,0.0,2.0,60,0.00,,,0.12,,2013-02-01 06:11:00,
2013-02-01 01:22:00,48.0,35.0,30.20,NNW,343,0.0,0.0,61,0.00,,,0.12,,2013-02-01 06:22:00,
2013-02-01 01:32:00,47.0,35.0,30.20,NNW,343,0.0,0.0,64,0.00,,,0.12,,2013-02-01 06:32:00,
2013-02-01 01:42:00,47.0,35.0,30.20,NNW,343,0.0,0.0,64,0.00,,,0.12,,2013-02-01 06:42:00,
2013-02-01 01:52:00,47.0,36.0,30.20,NNW,343,0.0,0.0,66,0.00,,,0.12,,2013-02-01 06:52:00,
2013-02-01 02:02:00,46.0,35.0,30.21,North,355,0.0,0.0,65,0.00,,,0.12,,2013-02-01 07:02:00,
2013-02-01 02:12:00,47.0,35.0,30.20,NW,324,0.0,0.0,63,0.00,,,0.12,,2013-02-01 07:12:00,
2013-02-01 02:22:00,47.0,35.0,30.20,NW,324,0.0,0.0,63,0.00,,,0.12,,2013-02-01 07:22:00,
2013-02-01 02:32:00,46.0,36.0,30.19,NW,324,0.0,0.0,68,0.00,,,0.12,,2013-02-01 07:32:00,
2013-02-01 02:42:00,46.0,36.0,30.19,NW,324,0.0,0.0,68,0.00,,,0.12,,2013-02-01 07:42:00,
2013-02-01 02:52:00,44.0,36.0,30.20,NW,324,0.0,0.0,74,0.00,,,0.12,,2013-02-01 07:52:00,
2013-02-01 03:01:00,44.0,37.0,30.20,NW,324,0.0,0.0,76,0.00,,,0.12,,2013-02-01 08:01:00,
2013-02-01 03:11:00,44.0,37.0,30.20,NW,324,0.0,0.0,76,0.00,,,0.12,,2013-02-01 08:11:00,
2013-02-01 03:21:00,44.0,37.0,30.20,NW,324,0.0,0.0,76,0.00,,,0.12,,2013-02-01 08:21:00,
2013-02-01 03:32:00,45.0,37.0,30.20,NNW,335,0.0,1.0,74,0.00,,,0.12,,2013-02-01 08:32:00,
2013-02-01 03:42:00,45.0,37.0,30.20,NNW,335,0.0,1.0,74,0.00,,,0.12,,2013-02-01 08:42:00,
2013-02-01 03:52:00,45.0,37.0,30.21,NNW,330,1.0,3.0,73,0.00,,,0.12,,2013-02-01 08:52:00,
2013-02-01 04:02:00,45.0,38.0,30.20,NW,326,0.0,0.0,76,0.00,,,0.12,,2013-02-01 09:02:00,
2013-02-01 04:11:00,45.0,38.0,30.20,NW,326,0.0,0.0,76,0.00,,,0.12,,2013-02-01 09:11:00,
2013-02-01 04:21:00,43.0,37.0,30.21,NW,326,0.0,0.0,79,0.00,,,0.12,,2013-02-01 09:21:00,
2013-02-01 04:32:00,43.0,37.0,30.20,NW,326,0.0,0.0,80,0.00,,,0.12,,2013-02-01 09:32:00,
2013-02-01 04:42:00,43.0,37.0,30.20,NW,326,0.0,0.0,80,0.00,,,0.12,,2013-02-01 09:42:00,
2013-02-01 04:52:00,42.0,37.0,30.21,NW,326,0.0,0.0,82,0.00,,,0.11,,2013-02-01 09:52:00,
2013-02-01 05:01:00,41.0,36.0,30.20,NW,319,0.0,0.0,82,0.00,,,0.09,,2013-02-01 10:01:00,
2013-02-01 05:11:00,41.0,36.0,30.20,NW,319,0.0,0.0,82,0.00,,,0.09,,2013-02-01 10:11:00,
2013-02-01 05:21:00,42.0,37.0,30.22,NW,305,0.0,0.0,81,0.00,,,0.08,,2013-02-01 10:21:00,
2013-02-01 05:32:00,43.0,36.0,30.22,NNW,333,1.0,3.0,77,0.00,,,0.08,,2013-02-01 10:32:00,
2013-02-01 05:42:00,43.0,36.0,30.22,NNW,333,1.0,3.0,77,0.00,,,0.08,,2013-02-01 10:42:00,
2013-02-01 05:53:00,45.0,36.0,30.22,NW,322,1.0,3.0,71,0.00,,,0.08,,2013-02-01 10:53:00,
2013-02-01 06:02:00,45.0,35.0,30.23,NW,315,2.0,6.0,69,0.00,,,0.07,,2013-02-01 11:02:00,
2013-02-01 06:11:00,45.0,35.0,30.23,NW,315,2.0,6.0,69,0.00,,,0.07,,2013-02-01 11:11:00,
2013-02-01 06:22:00,45.0,35.0,30.24,NW,311,1.0,3.0,68,0.00,,,0.07,,2013-02-01 11:22:00,
2013-02-01 06:32:00,45.0,35.0,30.24,NW,313,1.0,2.0,69,0.00,,,0.06,,2013-02-01 11:32:00,
2013-02-01 06:42:00,45.0,35.0,30.24,NW,313,1.0,2.0,69,0.00,,,0.06,,2013-02-01 11:42:00,
2013-02-01 06:53:00,45.0,36.0,30.25,WNW,300,0.0,2.0,70,0.00,,,0.06,,2013-02-01 11:53:00,
2013-02-01 07:03:00,45.0,36.0,30.25,NW,313,1.0,3.0,71,0.00,,,0.06,,2013-02-01 12:03:00,
2013-02-01 07:12:00,45.0,36.0,30.25,NW,313,1.0,3.0,71,0.00,,,0.06,,2013-02-01 12:12:00,
2013-02-01 07:22:00,44.0,36.0,30.27,NW,306,1.0,3.0,73,0.00,,,0.05,,2013-02-01 12:22:00,
2013-02-01 07:32:00,44.0,36.0,30.27,NW,309,1.0,3.0,73,0.00,,,0.05,,2013-02-01 12:32:00,
2013-02-01 07:42:00,44.0,36.0,30.27,NW,309,1.0,3.0,73,0.00,,,0.05,,2013-02-01 12:42:00,
2013-02-01 07:52:00,44.0,35.0,30.27,NNW,343,1.0,3.0,71,0.00,,,0.04,,2013-02-01 12:52:00,
2013-02-01 08:02:00,45.0,35.0,30.27,NNW,338,1.0,5.0,69,0.00,,,0.04,,2013-02-01 13:02:00,
2013-02-01 08:11:00,45.0,35.0,30.27,NNW,338,1.0,5.0,69,0.00,,,0.04,,2013-02-01 13:11:00,
2013-02-01 08:22:00,47.0,37.0,30.27,North,355,2.0,6.0,67,0.00,,,0.03,,2013-02-01 13:22:00,
2013-02-01 08:33:00,47.0,35.0,30.28,NW,323,4.0,8.0,64,0.00,,,0.02,,2013-02-01 13:33:00,
2013-02-01 08:42:00,47.0,35.0,30.28,NW,323,4.0,8.0,64,0.00,,,0.02,,2013-02-01 13:42:00,
2013-02-01 08:53:00,49.0,35.0,30.29,NW,311,2.0,8.0,59,0.00,,,0.02,,2013-02-01 13:53:00,
2013-02-01 09:03:00,51.0,36.0,30.29,NW,309,3.0,6.0,56,0.00,,,0.02,,2013-02-01 14:03:00,
2013-02-01 09:11:00,51.0,36.0,30.29,NNW,332,3.0,12.0,56,0.00,,,0.02,,2013-02-01 14:11:00,
2013-02-01 09:22:00,51.0,36.0,30.29,NNW,332,3.0,12.0,56,0.00,,,0.02,,2013-02-01 14:22:00,
2013-02-01 09:32:00,53.0,38.0,30.30,NW,315,5.0,10.0,56,0.00,,,0.02,,2013-02-01 14:32:00,
2013-02-01 09:42:00,53.0,38.0,30.31,NW,306,6.0,13.0,56,0.00,,,0.02,,2013-02-01 14:42:00,
2013-02-01 09:52:00,53.0,38.0,30.31,NW,306,6.0,13.0,56,0.00,,,0.02,,2013-02-01 14:52:00,
2013-02-01 10:03:00,55.0,40.0,30.32,NNW,328,4.0,12.0,57,0.00,,,0.01,,2013-02-01 15:03:00,
2013-02-01 10:12:00,56.0,41.0,30.32,North,355,3.0,10.0,56,0.00,,,0.01,,2013-02-01 15:12:00,
2013-02-01 10:22:00,56.0,41.0,30.32,North,355,3.0,10.0,56,0.00,,,0.01,,2013-02-01 15:22:00,
2013-02-01 10:33:00,58.0,43.0,30.32,NW,306,3.0,10.0,57,0.00,,,0.00,,2013-02-01 15:33:00,
2013-02-01 10:42:00,58.0,43.0,30.32,NW,306,3.0,10.0,57,0.00,,,0.00,,2013-02-01 15:42:00,
2013-02-01 10:52:00,59.0,43.0,30.32,West,269,2.0,7.0,56,0.00,,,0.00,,2013-02-01 15:52:00,
2013-02-01 11:03:00,61.0,45.0,30.31,NNW,334,3.0,7.0,55,0.00,,,0.00,,2013-02-01 16:03:00,
2013-02-01 11:11:00,62.0,46.0,30.32,NNW,327,3.0,7.0,55,0.00,,,0.00,,2013-02-01 16:11:00,
2013-02-01 11:22:00,62.0,46.0,30.32,NNW,327,3.0,7.0,55,0.00,,,0.00,,2013-02-01 16:22:00,
2013-02-01 11:33:00,62.0,45.0,30.32,NW,312,5.0,12.0,54,0.00,,,0.00,,2013-02-01 16:33:00,
2013-02-01 11:43:00,63.0,46.0,30.32,NNW,333,4.0,12.0,54,0.00,,,0.00,,2013-02-01 16:43:00,
2013-02-01 11:52:00,63.0,46.0,30.32,NNW,333,4.0,12.0,54,0.00,,,0.00,,2013-02-01 16:52:00,
2013-02-01 12:02:00,64.0,48.0,30.31,NNW,348,5.0,10.0,56,0.00,,,0.00,,2013-02-01 17:02:00,
2013-02-01 12:12:00,64.0,48.0,30.30,NNE,29,3.0,8.0,56,0.00,,,0.00,,2013-02-01 17:12:00,
2013-02-01 12:22:00,64.0,48.0,30.30,NNE,29,3.0,8.0,56,0.00,,,0.00,,2013-02-01 17:22:00,
2013-02-01 12:32:00,64.0,47.0,30.30,NNE,16,3.0,12.0,55,0.00,,,0.00,,2013-02-01 17:32:00,
2013-02-01 12:42:00,64.0,47.0,30.30,NNE,16,3.0,12.0,55,0.00,,,0.00,,2013-02-01 17:42:00,
2013-02-01 12:53:00,65.0,48.0,30.30,North,0,4.0,9.0,54,0.00,,,0.00,,2013-02-01 17:53:00,
2013-02-01 13:03:00,65.0,48.0,30.29,NNE,22,3.0,9.0,54,0.00,,,0.00,,2013-02-01 18:03:00,
2013-02-01 13:12:00,65.0,48.0,30.29,NNE,22,3.0,9.0,54,0.00,,,0.00,,2013-02-01 18:12:00,
2013-02-01 13:22:00,65.0,46.0,30.29,East,82,3.0,9.0,50,0.00,,,0.00,,2013-02-01 18:22:00,
2013-02-01 13:32:00,65.0,46.0,30.27,North,350,2.0,7.0,50,0.00,,,0.00,,2013-02-01 18:32:00,
2013-02-01 13:42:00,65.0,46.0,30.27,North,350,2.0,7.0,50,0.00,,,0.00,,2013-02-01 18:42:00,
2013-02-01 13:53:00,65.0,44.0,30.27,NW,317,2.0,6.0,47,0.00,,,0.00,,2013-02-01 18:53:00,
2013-02-01 14:03:00,66.0,45.0,30.27,NNW,329,3.0,7.0,47,0.00,,,0.00,,2013-02-01 19:03:00,
2013-02-01 14:12:00,66.0,45.0,30.27,NNW,329,3.0,7.0,47,0.00,,,0.00,,2013-02-01 19:12:00,
2013-02-01 14:21:00,66.0,44.0,30.26,NNE,14,0.0,5.0,45,0.00,,,0.00,,2013-02-01 19:21:00,
2013-02-01 14:32:00,67.0,44.0,30.26,NE,36,3.0,7.0,44,0.00,,,0.00,,2013-02-01 19:32:00,
2013-02-01 14:42:00,67.0,44.0,30.26,NE,36,3.0,7.0,44,0.00,,,0.00,,2013-02-01 19:42:00,
2013-02-01 14:52:00,67.0,45.0,30.26,NE,34,0.0,3.0,45,0.00,,,0.00,,2013-02-01 19:52:00,
2013-02-01 15:02:00,68.0,44.0,30.26,ENE,71,1.0,5.0,42,0.00,,,0.00,,2013-02-01 20:02:00,
2013-02-01 15:11:00,67.0,43.0,30.25,ENE,67,3.0,7.0,42,0.00,,,0.00,,2013-02-01 20:11:00,
2013-02-01 15:21:00,67.0,43.0,30.25,ENE,67,3.0,7.0,42,0.00,,,0.00,,2013-02-01 20:21:00,
2013-02-01 15:32:00,67.0,40.0,30.25,NE,52,3.0,7.0,37,0.00,,,0.00,,2013-02-01 20:32:00,
2013-02-01 15:42:00,67.0,39.0,30.25,NE,36,1.0,7.0,36,0.00,,,0.00,,2013-02-01 20:42:00,
2013-02-01 15:52:00,67.0,39.0,30.25,NE,36,1.0,7.0,36,0.00,,,0.00,,2013-02-01 20:52:00,
2013-02-01 16:02:00,68.0,39.0,30.25,NE,43,2.0,6.0,35,0.00,,,0.00,,2013-02-01 21:02:00,
2013-02-01 16:12:00,68.0,39.0,30.25,NE,43,2.0,6.0,35,0.00,,,0.00,,2013-02-01 21:12:00,
2013-02-01 16:22:00,67.0,40.0,30.25,ENE,65,1.0,5.0,37,0.00,,,0.00,,2013-02-01 21:22:00,
2013-02-01 16:32:00,67.0,38.0,30.25,ENE,75,1.0,5.0,34,0.00,,,0.00,,2013-02-01 21:32:00,
2013-02-01 16:42:00,67.0,38.0,30.25,ENE,75,1.0,5.0,34,0.00,,,0.00,,2013-02-01 21:42:00,
2013-02-01 16:52:00,66.0,34.0,30.25,NE,54,1.0,5.0,30,0.00,,,0.00,,2013-02-01 21:52:00,
2013-02-01 17:02:00,67.0,36.0,30.25,ENE,75,1.0,3.0,32,0.00,,,0.00,,2013-02-01 22:02:00,
2013-02-01 17:11:00,66.0,34.0,30.25,ENE,65,1.0,2.0,31,0.00,,,0.00,,2013-02-01 22:11:00,
2013-02-01 17:21:00,66.0,34.0,30.25,ENE,65,1.0,2.0,31,0.00,,,0.00,,2013-02-01 22:21:00,
2013-02-01 17:32:00,65.0,37.0,30.24,ENE,64,0.0,2.0,36,0.00,,,0.00,,2013-02-01 22:32:00,
2013-02-01 17:42:00,65.0,37.0,30.24,ENE,64,0.0,2.0,36,0.00,,,0.00,,2013-02-01 22:42:00,
2013-02-01 17:52:00,63.0,37.0,30.26,East,82,1.0,3.0,38,0.00,,,0.00,,2013-02-01 22:52:00,
2013-02-01 18:01:00,62.0,42.0,30.25,East,82,0.0,0.0,47,0.00,,,0.00,,2013-02-01 23:01:00,
2013-02-01 18:11:00,60.0,44.0,30.24,East,82,0.0,0.0,55,0.00,,,0.00,,2013-02-01 23:11:00,
2013-02-01 18:21:00,60.0,44.0,30.24,East,82,0.0,0.0,55,0.00,,,0.00,,2013-02-01 23:21:00,
2013-02-01 18:32:00,58.0,43.0,30.25,East,82,0.0,0.0,58,0.00,,,0.00,,2013-02-01 23:32:00,
2013-02-01 18:42:00,58.0,43.0,30.25,East,82,0.0,0.0,58,0.00,,,0.00,,2013-02-01 23:42:00,
2013-02-01 18:52:00,55.0,45.0,30.25,East,82,0.0,0.0,68,0.00,,,0.00,,2013-02-01 23:52:00,
2013-02-01 19:02:00,53.0,45.0,30.26,East,82,0.0,0.0,73,0.00,,,0.00,,2013-02-02 00:02:00,
2013-02-01 19:21:00,52.0,45.0,30.26,East,82,0.0,0.0,77,0.00,,,0.00,,2013-02-02 00:21:00,
2013-02-01 19:32:00,51.0,44.0,30.25,East,82,0.0,0.0,78,0.00,,,0.00,,2013-02-02 00:32:00,
2013-02-01 19:52:00,50.0,45.0,30.25,East,82,0.0,0.0,82,0.00,,,0.00,,2013-02-02 00:52:00,
2013-02-01 20:02:00,49.0,44.0,30.25,East,82,0.0,0.0,82,0.00,,,0.00,,2013-02-02 01:02:00,
2013-02-01 20:21:00,49.0,44.0,30.24,East,82,0.0,0.0,82,0.00,,,0.00,,2013-02-02 01:21:00,
2013-02-01 20:32:00,48.0,43.0,30.25,East,82,0.0,0.0,83,0.00,,,0.00,,2013-02-02 01:32:00,
2013-02-01 20:42:00,48.0,43.0,30.25,East,82,0.0,0.0,83,0.00,,,0.00,,2013-02-02 01:42:00,
2013-02-01 20:52:00,47.0,43.0,30.25,East,82,0.0,0.0,85,0.00,,,0.00,,2013-02-02 01:52:00,
2013-02-01 21:01:00,46.0,42.0,30.25,East,82,0.0,0.0,85,0.00,,,0.00,,2013-02-02 02:01:00,
2013-02-01 21:21:00,45.0,41.0,30.25,East,82,0.0,0.0,87,0.00,,,0.00,,2013-02-02 02:21:00,
2013-02-01 21:32:00,44.0,41.0,30.26,East,82,0.0,0.0,88,0.00,,,0.00,,2013-02-02 02:32:00,
2013-02-01 21:52:00,44.0,41.0,30.26,East,82,0.0,0.0,90,0.00,,,0.00,,2013-02-02 02:52:00,
2013-02-01 22:02:00,43.0,40.0,30.26,East,82,0.0,0.0,90,0.00,,,0.00,,2013-02-02 03:02:00,
2013-02-01 22:11:00,43.0,41.0,30.27,East,82,0.0,0.0,92,0.00,,,0.00,,2013-02-02 03:11:00,
2013-02-01 22:22:00,43.0,41.0,30.27,East,82,0.0,0.0,92,0.00,,,0.00,,2013-02-02 03:22:00,
2013-02-01 22:32:00,43.0,41.0,30.27,East,82,0.0,0.0,94,0.00,,,0.00,,2013-02-02 03:32:00,
2013-02-01 22:42:00,42.0,40.0,30.27,East,82,0.0,0.0,93,0.00,,,0.00,,2013-02-02 03:42:00,
2013-02-01 22:52:00,42.0,40.0,30.27,East,82,0.0,0.0,93,0.00,,,0.00,,2013-02-02 03:52:00,
2013-02-01 23:02:00,42.0,40.0,30.27,East,82,0.0,0.0,94,0.00,,,0.00,,2013-02-02 04:02:00,
2013-02-01 23:11:00,42.0,40.0,30.27,East,82,0.0,0.0,94,0.00,,,0.00,,2013-02-02 04:11:00,
2013-02-01 23:22:00,42.0,40.0,30.27,East,82,0.0,0.0,93,0.00,,,0.00,,2013-02-02 04:22:00,
2013-02-01 23:32:00,41.0,39.0,30.27,East,82,0.0,0.0,93,0.00,,,0.00,,2013-02-02 04:32:00,
2013-02-01 23:42:00,41.0,39.0,30.27,East,82,0.0,0.0,93,0.00,,,0.00,,2013-02-02 04:42:00,
2013-02-01 23:52:00,41.0,40.0,30.26,East,82,0.0,0.0,95,0.00,,,0.00,,2013-02-02 04:52:00,